Weather History for KMRH - January, 2013

Change the Weather History Date:

Saturday, January 12, 2013

  Actual Average Record
Temperature  
Mean Temperature 60 °F -  
Max Temperature 64 °F 52 °F 68 °F (2007)
Min Temperature 55 °F 33 °F 12 °F (1982)
Degree Days  
Heating Degree Days 6    
Growing Degree Days 10 (Base 50)    
Moisture  
Dew Point 57 °F    
Average Humidity 98    
Maximum Humidity 100    
Minimum Humidity 84    
Precipitation  
Precipitation 0.01 in - - ()
Sea Level Pressure  
Sea Level Pressure 30.15 in    
Wind  
Wind Speed 5 mph (SW)    
Max Wind Speed 9 mph    
Max Gust Speed 44 mph    
Visibility 3 miles    
Events Fog    
Averages and records for this station are not official NWS values.
T = Trace of Precipitation, MM = Missing Value Source: NWS Daily Summary

Daily Weather History Graph

Daily Weather History Graph

Search for Another Location

Airport or City:

Trip Planner

Search our weather history database for the weather conditions in past years. The results will help you decide how hot, cold, wet, or windy it might be!

Date:

Astronomy

Jan. 12, 2013 Rise Set
Actual Time 7:14 AM EST 5:16 PM EST
Civil Twilight 6:46 AM EST 5:43 PM EST
Nautical Twilight 6:15 AM EST 6:14 PM EST
Astronomical Twilight 5:45 AM EST 6:45 PM EST
Moon 7:35 AM EST (1/12) 6:37 PM EST (1/12)
Length of Visible Light 10h 57m
Length of Day
10h 02m
New Moon, 1% of the Moon is Illuminated
Jan 12
New Moon
Jan 18
First Quarter
Jan 26
Full
Feb 3
Last Quarter
Feb 10
New

Hourly Weather History & Observations

Time (EST) Temp. Dew Point Humidity Pressure Visibility Wind Dir Wind Speed Gust Speed Precip Events Conditions
12:58 AM 57.9 °F 57.9 °F 100% 30.17 in 0.5 mi SW 6.9 mph - N/A Fog Fog
1:13 AM 57.2 °F 57.2 °F 100% 30.16 in 1.2 mi SW 8.1 mph - N/A   Overcast
1:40 AM 57.2 °F 55.4 °F 94% 30.16 in 1.0 mi SW 9.2 mph - 0.01 in   Overcast
1:47 AM 57.2 °F 57.2 °F 100% 30.16 in 1.2 mi SW 8.1 mph - 0.01 in   Overcast
1:55 AM 57.2 °F 57.2 °F 100% 30.16 in 1.0 mi SW 6.9 mph - 0.01 in   Mist
1:58 AM 57.0 °F 57.0 °F 100% 30.16 in 1.0 mi SW 5.8 mph - 0.01 in   Mist
2:08 AM 57.2 °F 57.2 °F 100% 30.16 in 0.8 mi SW 4.6 mph - N/A   Mist
2:58 AM 57.0 °F 57.0 °F 100% 30.16 in 0.2 mi Calm Calm - N/A Fog Fog
3:55 AM 57.2 °F 57.2 °F 100% 30.15 in 1.0 mi SW 4.6 mph - N/A   Mist
3:58 AM 57.0 °F 57.0 °F 100% 30.15 in 0.8 mi SW 4.6 mph - N/A   Mist
4:11 AM 57.2 °F 57.2 °F 100% 30.15 in 1.2 mi SW 5.8 mph - N/A   Overcast
4:54 AM 57.2 °F 57.2 °F 100% 30.14 in 3.0 mi SW 6.9 mph - N/A   Mostly Cloudy
4:58 AM 57.0 °F 57.0 °F 100% 30.14 in 5.0 mi SW 6.9 mph - N/A   Mostly Cloudy
5:13 AM 57.2 °F 57.2 °F 100% 30.14 in 1.8 mi SW 6.9 mph - N/A   Mostly Cloudy
5:31 AM 55.4 °F 55.4 °F 100% 30.14 in 1.0 mi SW 8.1 mph - N/A   Mist
5:48 AM 55.4 °F 55.4 °F 100% 30.15 in 0.8 mi SW 5.8 mph - N/A   Mist
5:58 AM 57.0 °F 57.0 °F 100% 30.15 in 0.8 mi SW 4.6 mph - N/A   Overcast
6:08 AM 55.4 °F 55.4 °F 100% 30.15 in 0.5 mi SW 3.5 mph - N/A Fog Fog
6:30 AM 55.4 °F 55.4 °F 100% 30.16 in 0.5 mi Calm Calm - N/A Fog Fog
6:58 AM 55.0 °F 55.0 °F 100% 30.17 in 0.2 mi SW 3.5 mph - N/A Fog Fog
7:16 AM 55.4 °F 55.4 °F 100% 30.17 in 0.2 mi Calm Calm - N/A Fog Fog
7:28 AM 55.4 °F 55.4 °F 100% 30.17 in 0.2 mi SW 3.5 mph - N/A Fog Fog
7:41 AM 55.4 °F 55.4 °F 100% 30.17 in 1.2 mi Calm Calm - N/A   Mostly Cloudy
7:54 AM 55.4 °F 55.4 °F 100% 30.17 in 2.5 mi Calm Calm - N/A   Scattered Clouds
7:58 AM 55.9 °F 55.9 °F 100% 30.17 in 2.5 mi Calm Calm - N/A   Partly Cloudy
8:11 AM 57.2 °F 57.2 °F 100% 30.17 in 3.0 mi Calm Calm - N/A   Clear
8:30 AM 57.2 °F 57.2 °F 100% 30.18 in 4.0 mi SSW 3.5 mph - N/A   Scattered Clouds
8:38 AM 57.2 °F 57.2 °F 100% 30.18 in 2.5 mi SSW 4.6 mph - N/A   Mostly Cloudy
8:41 AM 57.2 °F 57.2 °F 100% 30.18 in 1.0 mi SSW 3.5 mph - N/A   Mostly Cloudy
8:48 AM 57.2 °F 57.2 °F 100% 30.18 in 0.2 mi SSW 4.6 mph - N/A Fog Fog
8:58 AM 57.9 °F 57.9 °F 100% 30.18 in 0.2 mi SW 3.5 mph - N/A Fog Fog
9:33 AM 59.0 °F 59.0 °F 100% 30.19 in 1.2 mi Calm Calm - N/A   Overcast
9:37 AM 59.0 °F 59.0 °F 100% 30.19 in 3.0 mi Calm Calm - N/A   Overcast
9:54 AM 60.8 °F 59.0 °F 94% 30.19 in 6.0 mi SSW 4.6 mph 43.7 mph N/A   Overcast
9:58 AM 60.1 °F 59.0 °F 96% 30.19 in 6.0 mi Variable 5.8 mph - N/A   Overcast
10:58 AM 62.1 °F 61.0 °F 96% 30.18 in 9.0 mi SW 5.8 mph - N/A   Overcast
11:58 AM 64.9 °F 61.0 °F 87% 30.14 in 10.0 mi SW 5.8 mph - N/A   Overcast
12:58 PM 64.9 °F 61.0 °F 87% 30.13 in 10.0 mi SSW 8.1 mph - N/A   Overcast
1:58 PM 64.0 °F 60.1 °F 87% 30.12 in 10.0 mi SSW 4.6 mph - N/A   Scattered Clouds
2:58 PM 64.0 °F 60.1 °F 87% 30.12 in 10.0 mi SW 8.1 mph - N/A   Clear
3:58 PM 64.9 °F 60.1 °F 84% 30.12 in 10.0 mi WSW 4.6 mph - N/A   Scattered Clouds
4:28 PM 64.4 °F 60.8 °F 88% 30.13 in 10.0 mi SW 3.5 mph - N/A   Mostly Cloudy
4:58 PM 63.0 °F 59.0 °F 87% 30.13 in 9.0 mi Calm Calm - N/A   Scattered Clouds
5:58 PM 62.1 °F 60.1 °F 93% 30.14 in 8.0 mi ESE 4.6 mph - N/A   Clear
6:58 PM 60.1 °F 59.0 °F 96% 30.14 in 5.0 mi ENE 3.5 mph - N/A   Clear
7:58 PM 59.0 °F 57.9 °F 96% 30.13 in 4.0 mi Calm Calm - N/A   Clear
8:10 PM 57.2 °F 57.2 °F 100% 30.13 in 1.5 mi Calm Calm - N/A   Clear
8:13 PM 57.2 °F 57.2 °F 100% 30.13 in 0.8 mi Calm Calm - N/A   Clear
8:20 PM 57.2 °F 57.2 °F 100% 30.13 in 0.2 mi Calm Calm - N/A Fog Fog
8:42 PM 57.2 °F 57.2 °F 100% 30.13 in 1.2 mi Calm Calm - N/A   Scattered Clouds
8:58 PM 57.9 °F 57.0 °F 97% 30.13 in 1.2 mi Calm Calm - N/A   Partly Cloudy
9:28 PM 55.4 °F 55.4 °F 100% 30.13 in 0.8 mi Calm Calm - N/A   Mist
9:35 PM 55.4 °F 55.4 °F 100% 30.13 in 0.2 mi Calm Calm - N/A Fog Fog
9:51 PM 55.4 °F 55.4 °F 100% 30.13 in 1.2 mi Calm Calm - N/A   Scattered Clouds
9:54 PM 55.4 °F 55.4 °F 100% 30.13 in 3.0 mi Calm Calm - N/A   Scattered Clouds
9:58 PM 55.9 °F 55.9 °F 100% 30.13 in 2.0 mi Calm Calm - N/A   Scattered Clouds
10:26 PM 59.0 °F 57.2 °F 94% 30.12 in 3.0 mi East 3.5 mph - N/A   Clear
10:42 PM 59.0 °F 59.0 °F 100% 30.13 in 3.0 mi ENE 4.6 mph - N/A   Scattered Clouds
10:45 PM 59.0 °F 57.2 °F 94% 30.13 in 2.0 mi ENE 4.6 mph - N/A   Mostly Cloudy
10:51 PM 59.0 °F 57.2 °F 94% 30.13 in 1.0 mi ENE 4.6 mph - N/A   Mostly Cloudy
10:58 PM 59.0 °F 57.9 °F 96% 30.13 in 0.8 mi ENE 3.5 mph - N/A   Mist
11:37 PM 59.0 °F 57.2 °F 94% 30.13 in 1.2 mi East 3.5 mph - N/A   Overcast
11:51 PM 57.2 °F 57.2 °F 100% 30.13 in 1.0 mi Calm Calm - N/A   Mist
11:58 PM 57.9 °F 57.9 °F 100% 30.13 in 0.8 mi Calm Calm - N/A   Mist